Vertical_Velocity
2 -0 0 -0 -1 -1 -1 -1 -2 0 -1 0 0 -2 0 -1 -0 0 0 -0 -0 1 -1 -1 -1 -0 -0 -0 -1 -1 -1 -0 -0 0 -0 0 -0 1 1 1 1 0 -0
-0 0 -0 -0 -0 -0 -0 -0 -1 -1 -0 0 -1 -1 0 -1 -0 0 -0 -0 -1 -1 -1 -1 -0 -0 -0 -0 -0 -0 -1 -1 -1 -1 -0 -0 -1 -0 0 0 0 0 0
1 -0 0 -1 -0 0 0 -0 -0 0 -0 -1 -1 1 0 -0 0 0 -1 -1 -2 -1 -1 -1 -1 -1 -1 -1 -1 -1 -1 -1 -1 -2 -1 -0 -0 -1 -1 -1 0 -0 -1
-0 -1 1 -2 -1 -0 0 1 -1 -2 -1 -1 0 -0 -2 -2 -1 -1 -1 -1 -1 -0 -1 -1 -1 -1 -1 -1 -1 -1 -2 -1 -1 -0 -0 -1 -1 -1 -1 -1 -0 -1 1
0 -0 0 -0 0 0 0 0 -0 -1 -1 0 -1 -1 -0 -1 -1 -2 -1 -1 -1 -1 -1 -0 -1 -1 -1 -1 -1 -0 -0 0 -1 -1 -1 -1 -0 -1 -1 -0 0 -1 -1
0 -0 -0 0 0 1 -1 0 0 0 1 1 0 -1 -2 -1 -1 -1 -0 -1 -1 -0 0 0 -0 -1 -1 -1 -1 -1 -1 -1 1 0 0 -1 -1 -1 -1 -2 -1 0 0
1 0 -1 -1 -1 1 -0 0 -1 -0 -1 -1 -0 -1 -1 -1 -1 -0 -1 -1 -0 -0 -1 -1 -0 -1 -0 -0 -0 -1 -1 -1 -0 0 0 -1 -1 -1 -1 -2 -1 -1 -0
0 0 -0 -1 -0 -0 -0 1 1 -0 -1 -2 -3 -2 -1 -1 -1 -0 -1 -0 0 -0 -1 -0 0 -0 -1 -0 -1 -1 -2 -1 -1 -1 0 -0 -1 -0 -1 0 -0 -1 -0
0 1 1 -0 -1 -1 1 1 -0 -0 -1 -0 1 -2 -2 -2 -1 -2 -1 -0 -1 -1 -0 -0 -0 -1 -1 -1 0 1 0 -0 -0 -1 -1 -1 -1 -1 0 0 -0 -1 -2
-0 -0 1 0 0 -1 -0 -1 -1 -1 -0 0 0 -0 -1 -1 -0 -1 1 0 -0 -1 -0 -1 -1 -1 -0 0 -2 -1 -0 -1 -0 -0 -0 -1 -1 -2 -1 -0 -1 -0 1
2 1 0 0 0 0 -0 -1 -0 -0 -0 0 -1 -0 -0 -0 -2 -1 -1 -1 -1 -1 -0 -1 0 -0 -1 -1 -1 -1 -1 -1 -1 -1 -1 -1 -2 -1 -0 0 -0 -1 -1
1 -0 -1 -0 -0 -1 0 -0 -0 -1 -1 0 -1 -1 -1 -1 -0 0 -0 -1 -1 -1 -1 0 1 0 0 -0 1 0 -1 -1 -1 -1 -0 0 -1 -1 -2 -1 -1 -1 -1
0 1 0 0 -0 0 0 2 0 -1 -1 -2 -1 0 -1 -1 -1 -1 -1 -1 -0 0 -0 0 -1 -1 -1 1 -0 -1 -1 -1 -0 -1 -1 -1 -0 -1 -2 -3 -2 -1 -0
-1 1 -0 -1 -1 -1 0 -0 1 -0 -1 -2 -1 -1 -1 -1 -1 -2 -1 -1 -1 -0 -0 -1 -1 -1 -0 -1 -1 -1 -1 1 0 -1 -1 -2 -2 -0 -1 2 -0 -1 -2
-1 0 1 0 -1 -2 0 0 0 0 -1 -1 -1 -1 -0 -1 -1 -1 -0 -1 -1 -1 -1 -1 -1 -1 -1 -1 -0 -1 0 -1 1 1 -1 -1 -2 -2 -1 -1 1 1 1
2 1 1 -1 -1 -0 -0 -2 -1 -0 1 0 -0 0 -1 -1 -0 -0 -0 -1 -1 -1 -0 -1 -0 0 -1 -1 -2 -0 -1 0 -0 1 -0 -0 -0 -1 -2 -1 -2 -1 -2
-2 -2 1 1 1 -0 -1 -1 -1 1 0 0 0 1 -0 -1 -1 -1 -1 -1 -0 -0 -1 -0 -0 -1 -1 0 -2 -1 -0 0 -0 -0 0 0 -1 -2 -4 -2 -1 -1 -0
-0 2 -2 -0 -0 1 -0 0 1 1 2 -0 -1 0 -1 0 -1 -1 -1 -2 -1 0 1 -0 -1 -0 -1 -1 -1 -2 -1 0 -1 -2 -1 1 -1 -1 -0 -1 -1 1 0
1 1 0 0 -0 0 -0 -1 -1 0 0 -1 0 0 -1 0 -1 1 0 -2 -1 0 0 -1 -1 1 -0 -2 0 -1 -2 0 -0 0 -0 -1 -1 -0 0 -1 -3 -1 0
1 0 -1 -1 -2 -3 -2 1 1 0 -0 -0 -0 -1 -1 -1 -1 0 0 -2 -1 0 0 -0 2 -2 3 -0 -1 2 -2 0 3 2 -2 -1 1 0 -0 -0 -1 -2 -2
5 3 1 -0 -2 -2 -1 -0 -0 1 -1 0 -2 -2 -0 0 -0 0 1 0 -2 -0 -0 -1 0 -0 2 -3 -1 1 3 -0 2 2 -1 0 -0 -1 -0 -1 0 -1 -1
1 2 1 1 0 1 0 0 -0 -0 2 1 -2 -1 -1 -0 -1 -2 -1 1 -0 0 1 -0 -2 -1 0 1 -3 -2 8 10 -1 -1 3 2 1 -0 -1 -2 -1 -1 -3
3 2 1 1 -1 -1 1 2 1 1 2 1 0 1 -0 -0 -0 1 1 1 -0 -1 2 2 1 2 1 7 2 -8 -5 2 7 14 2 -0 -2 0 -1 -1 -1 -1 -1
1 -1 -1 -0 1 -0 -1 -1 -3 -3 -1 -0 -1 -2 -5 -5 -3 -3 -2 -0 1 -2 3 2 1 3 -2 1 4 -1 -5 -11 -8 -5 7 12 4 2 1 -1 2 1 -1
2 3 1 0 -1 -1 -1 -1 1 0 0 0 -1 -1 -1 -2 -0 -2 -1 -3 -2 -3 -2 -2 -0 1 1 -1 3 1 -1 -1 -1 -12 -3 5 3 1 -0 -1 4 4 -1
2 1 0 -1 -1 -1 -1 -1 -2 -1 1 2 3 2 0 -1 -1 0 1 2 1 1 0 1 -1 2 1 0 -2 1 3 1 4 -1 -6 -1 0 10 1 1 3 2 2
Height
5891 5892 5892 5894 5895 5896 5897 5898 5899 5899 5899 5900 5900 5901 5901 5900 5900 5901 5901 5900 5900 5899 5899 5898 5898 5896 5895 5894 5894 5894 5893 5892 5891 5890 5889 5888 5887 5886 5885 5884 5882 5881 5880
5889 5890 5891 5893 5894 5895 5896 5897 5898 5899 5899 5899 5899 5900 5900 5899 5900 5900 5899 5899 5899 5898 5897 5896 5896 5895 5893 5892 5892 5891 5890 5889 5889 5888 5887 5885 5884 5883 5882 5881 5880 5878 5877
5887 5888 5890 5891 5892 5893 5894 5896 5897 5898 5898 5898 5899 5899 5898 5899 5899 5899 5898 5898 5898 5897 5895 5895 5894 5892 5891 5891 5891 5890 5888 5887 5886 5885 5884 5882 5881 5880 5879 5878 5877 5876 5875
5885 5886 5889 5890 5891 5892 5893 5894 5895 5896 5897 5898 5898 5896 5897 5897 5898 5898 5897 5896 5896 5895 5894 5893 5892 5891 5890 5890 5889 5888 5887 5885 5884 5883 5881 5880 5879 5878 5877 5876 5874 5873 5872
5883 5884 5886 5888 5889 5890 5891 5893 5894 5895 5896 5896 5895 5895 5896 5897 5896 5896 5895 5895 5894 5894 5893 5892 5891 5890 5889 5888 5886 5885 5885 5883 5882 5881 5879 5878 5877 5876 5874 5873 5871 5870 5868
5880 5882 5884 5886 5888 5889 5890 5891 5892 5894 5894 5894 5894 5895 5895 5894 5894 5894 5893 5893 5892 5892 5891 5890 5889 5889 5888 5886 5884 5883 5882 5881 5880 5879 5878 5876 5875 5873 5872 5870 5868 5867 5866
5876 5879 5882 5884 5886 5887 5889 5889 5890 5891 5891 5892 5893 5893 5893 5893 5893 5892 5891 5891 5891 5890 5889 5888 5888 5887 5885 5884 5883 5881 5880 5879 5877 5876 5875 5873 5872 5870 5869 5867 5865 5864 5862
5873 5876 5879 5881 5883 5885 5886 5888 5889 5890 5890 5890 5891 5890 5890 5891 5891 5890 5889 5889 5888 5888 5887 5886 5885 5884 5883 5882 5881 5879 5878 5876 5875 5873 5872 5871 5869 5868 5866 5864 5862 5861 5859
5870 5873 5876 5878 5880 5882 5884 5885 5887 5888 5889 5890 5890 5889 5888 5888 5888 5887 5887 5887 5886 5885 5884 5884 5883 5882 5881 5879 5878 5877 5876 5874 5872 5871 5869 5868 5866 5864 5863 5861 5859 5858 5856
5866 5870 5872 5875 5876 5879 5881 5882 5883 5885 5886 5887 5888 5887 5887 5887 5886 5885 5885 5884 5883 5883 5882 5881 5880 5879 5878 5877 5875 5874 5872 5871 5869 5867 5865 5864 5862 5861 5858 5856 5855 5854 5852
5862 5866 5868 5870 5873 5875 5877 5879 5880 5881 5882 5884 5884 5885 5885 5884 5883 5883 5882 5882 5881 5881 5880 5879 5877 5877 5875 5874 5873 5870 5868 5867 5865 5863 5862 5860 5858 5856 5855 5853 5851 5850 5848
5858 5860 5864 5867 5869 5871 5874 5875 5876 5877 5878 5880 5881 5881 5881 5880 5880 5880 5879 5879 5878 5877 5876 5875 5874 5873 5872 5870 5869 5867 5865 5863 5862 5860 5858 5856 5855 5853 5850 5849 5847 5845 5843
5854 5856 5859 5863 5865 5868 5870 5872 5873 5874 5875 5876 5877 5877 5877 5876 5876 5876 5876 5876 5875 5874 5872 5872 5870 5869 5868 5866 5865 5863 5861 5860 5858 5856 5854 5853 5850 5848 5846 5845 5843 5841 5839
5848 5852 5856 5858 5861 5864 5866 5868 5870 5871 5871 5872 5873 5873 5873 5873 5873 5873 5873 5872 5871 5870 5869 5868 5867 5865 5863 5861 5860 5858 5856 5855 5853 5851 5849 5848 5845 5843 5842 5840 5838 5836 5834
5845 5849 5851 5854 5857 5859 5862 5864 5865 5867 5867 5868 5869 5869 5870 5869 5869 5869 5868 5867 5866 5865 5864 5864 5862 5860 5858 5857 5855 5854 5852 5850 5849 5846 5844 5842 5839 5837 5836 5834 5833 5831 5829
5838 5842 5846 5848 5851 5854 5856 5859 5861 5862 5863 5864 5864 5865 5865 5864 5864 5864 5863 5862 5861 5860 5859 5858 5857 5856 5854 5852 5850 5849 5847 5845 5843 5840 5839 5836 5833 5831 5830 5828 5826 5824 5822
5831 5836 5839 5842 5845 5847 5850 5853 5854 5856 5857 5859 5859 5859 5859 5859 5859 5859 5858 5856 5855 5855 5854 5852 5851 5850 5847 5846 5845 5843 5841 5840 5836 5834 5832 5829 5826 5824 5822 5820 5818 5816 5814
5825 5829 5832 5835 5838 5841 5844 5846 5848 5850 5852 5852 5852 5853 5853 5853 5854 5853 5852 5851 5850 5850 5849 5847 5845 5843 5842 5840 5838 5836 5835 5833 5830 5827 5825 5821 5818 5816 5813 5811 5810 5808 5807
5819 5822 5825 5829 5832 5835 5837 5839 5841 5843 5845 5845 5846 5847 5848 5848 5848 5848 5847 5846 5844 5844 5842 5840 5838 5837 5835 5833 5831 5829 5827 5825 5822 5819 5816 5813 5810 5808 5805 5803 5802 5800 5798
5811 5814 5818 5822 5825 5828 5831 5833 5835 5836 5837 5839 5840 5841 5841 5842 5842 5842 5841 5840 5838 5837 5836 5834 5832 5830 5829 5827 5824 5823 5820 5817 5815 5812 5808 5805 5802 5799 5797 5795 5792 5790 5789
5804 5807 5811 5815 5818 5821 5823 5826 5828 5830 5831 5832 5833 5834 5834 5834 5834 5834 5834 5833 5832 5831 5829 5827 5826 5824 5822 5819 5816 5815 5812 5810 5807 5804 5800 5797 5793 5790 5787 5785 5782 5780 5778
5794 5799 5803 5808 5811 5814 5817 5819 5820 5822 5824 5826 5827 5827 5827 5828 5827 5827 5827 5826 5825 5823 5821 5819 5818 5816 5814 5811 5807 5805 5805 5803 5798 5794 5791 5787 5784 5780 5777 5774 5772 5770 5768
5785 5790 5795 5798 5801 5805 5808 5811 5813 5816 5818 5819 5820 5820 5820 5821 5821 5821 5820 5818 5816 5815 5813 5812 5809 5807 5805 5803 5798 5795 5793 5793 5791 5787 5782 5778 5775 5771 5768 5765 5762 5759 5756
5779 5784 5787 5790 5793 5795 5798 5800 5803 5806 5808 5810 5811 5811 5811 5812 5811 5811 5811 5810 5808 5806 5804 5802 5800 5798 5795 5793 5790 5786 5783 5782 5779 5779 5774 5770 5765 5761 5759 5756 5752 5747 5744
5770 5775 5779 5782 5784 5787 5790 5792 5794 5796 5798 5800 5801 5802 5802 5802 5801 5799 5799 5798 5797 5796 5795 5793 5791 5788 5785 5783 5781 5778 5773 5771 5768 5765 5764 5761 5756 5752 5749 5745 5741 5737 5732
5762 5766 5770 5773 5776 5779 5781 5784 5786 5788 5790 5792 5793 5793 5793 5792 5791 5790 5789 5788 5787 5786 5785 5783 5780 5777 5774 5771 5769 5766 5762 5759 5756 5753 5752 5751 5748 5745 5740 5735 5730 5726 5721